Wind_Speed
31 31 32 33 34 34 32 28 27 27 27 28 28 27 25 25 24 23 22 21 20 20 19 19 17 16 15 14 13 11 10 10 9 8 7 5 4 4 4 4 5 5 6 7 8 9 10 10 11
34 34 35 36 36 34 30 28 28 28 29 30 29 28 27 26 25 24 23 22 22 22 21 20 19 18 16 15 14 13 12 10 9 8 7 6 5 5 5 5 6 6 7 8 8 9 10 11 11
37 37 38 39 38 33 29 28 30 30 31 31 31 30 29 28 27 26 25 24 23 23 22 21 20 19 18 16 15 14 13 12 10 9 8 7 7 6 6 6 6 7 7 8 9 10 11 11 12
40 40 41 41 37 32 31 30 31 32 32 32 32 32 31 30 29 27 26 25 24 24 23 22 21 20 19 17 16 15 14 13 11 10 9 9 8 7 7 6 7 7 8 9 9 10 11 11 12
43 43 43 42 37 33 32 33 33 33 33 33 33 33 32 31 31 30 28 27 26 25 24 23 22 20 19 18 17 16 15 14 13 12 11 10 9 8 7 7 7 7 8 9 9 10 11 12 12
46 46 46 43 38 35 35 36 36 35 35 34 34 33 32 32 32 31 30 29 27 26 25 24 22 21 20 19 18 18 17 15 14 13 12 11 10 8 8 7 7 8 8 9 9 10 11 12 13
48 48 47 43 40 38 37 38 38 37 37 36 35 35 33 33 33 32 31 30 28 27 26 25 23 22 21 20 19 19 18 17 15 14 13 12 10 9 9 8 8 8 9 9 9 10 11 12 13
50 51 50 46 43 39 39 40 40 39 38 38 38 36 35 34 34 33 32 31 30 28 27 26 25 24 22 21 21 20 19 18 17 15 14 12 11 11 10 10 9 9 9 9 10 10 11 12 13
51 53 52 46 43 41 42 42 42 41 41 40 39 37 36 36 35 34 34 32 31 29 28 27 26 25 24 23 22 21 20 19 17 16 15 13 12 11 11 11 10 10 10 10 10 10 11 13 14
53 55 50 46 45 45 45 45 44 44 43 41 40 39 38 37 36 35 34 33 32 31 30 29 28 26 25 24 23 22 21 19 18 16 15 14 13 12 12 11 11 11 10 10 10 11 12 13 15
53 53 49 48 47 48 48 47 47 47 45 43 42 41 40 39 38 36 35 34 33 32 31 30 29 28 27 25 24 23 22 20 19 17 16 15 14 14 13 12 12 11 11 11 11 12 13 15 16
52 51 49 49 49 50 50 49 50 49 46 45 44 44 42 40 38 37 36 35 34 33 32 31 30 29 28 27 25 24 23 21 20 18 17 16 15 15 14 13 13 12 12 12 12 13 14 16 17
51 50 50 49 51 52 52 52 51 51 48 47 46 45 43 42 40 38 37 36 35 34 33 32 31 30 29 28 26 25 24 23 21 20 19 17 16 16 15 14 14 13 13 13 13 14 15 17 18
49 50 51 51 52 52 53 53 53 51 49 49 48 46 45 44 42 40 38 37 36 35 34 33 32 31 30 29 28 26 25 23 23 21 20 19 18 17 16 16 15 14 14 14 15 16 17 18 19
48 50 51 51 51 51 53 55 54 50 51 51 49 48 46 45 43 41 39 38 38 36 35 34 33 32 31 30 28 27 26 25 24 23 21 20 19 19 18 17 16 15 16 16 16 18 19 20 21
47 49 50 51 52 51 53 55 52 52 52 52 51 50 48 46 44 43 41 40 39 38 36 35 34 33 32 30 29 29 27 26 25 24 23 22 21 20 19 18 17 17 17 17 18 19 20 21 22
46 48 48 49 51 52 53 53 51 53 54 53 52 51 50 48 46 44 43 41 40 39 38 37 35 34 33 32 30 30 29 27 26 25 24 23 22 22 21 20 19 19 19 19 20 20 22 23 24
45 46 46 46 50 53 53 52 51 53 55 54 53 53 52 50 47 46 44 43 42 41 40 39 37 36 35 33 32 31 30 28 27 26 26 25 24 23 22 21 21 20 21 21 21 22 23 24 25
44 45 45 44 47 53 54 53 51 53 55 55 55 54 54 51 49 48 46 45 44 43 42 40 38 37 35 34 33 32 31 30 29 28 28 27 26 24 24 23 23 22 23 23 23 24 25 26 26
44 45 44 44 46 50 53 54 52 53 54 54 54 54 54 53 51 50 48 47 45 44 43 41 40 38 37 36 35 34 33 31 30 30 29 29 28 26 26 25 25 25 25 25 25 26 26 27 28
43 44 44 43 45 49 52 55 54 53 53 55 54 54 54 54 53 51 49 48 46 45 44 42 41 40 38 37 37 36 35 33 32 31 30 30 29 28 28 27 27 27 27 27 27 27 28 28 29
42 42 44 45 45 47 51 55 53 54 53 54 54 53 53 53 53 52 50 49 47 46 45 44 43 42 40 39 38 37 35 34 33 32 32 31 31 30 30 29 29 29 29 29 29 29 29 30 31
40 40 42 44 45 47 49 54 53 52 53 52 53 53 53 53 53 53 50 50 48 47 47 46 45 44 42 41 39 38 37 36 35 34 33 33 32 32 31 31 31 30 30 30 30 31 31 32 32
39 41 42 43 44 48 47 51 54 51 50 50 51 52 53 53 53 53 52 51 50 49 49 48 47 45 44 42 40 39 38 37 36 35 34 34 34 33 33 32 32 32 32 32 32 32 33 33 34
37 38 40 43 45 47 44 50 53 49 48 48 50 52 53 54 54 54 53 52 51 50 50 49 48 46 45 43 42 40 39 38 37 36 36 35 35 34 34 34 34 34 34 34 34 34 35 35 36
34 36 38 40 42 44 45 49 49 47 47 47 48 51 53 54 55 55 54 53 52 52 51 50 49 47 46 44 43 42 40 39 38 37 37 36 36 36 35 36 35 36 36 36 36 36 36 36 37
35 36 37 41 42 42 45 46 46 45 45 46 46 48 52 54 54 54 54 53 53 52 52 51 50 49 47 46 44 43 42 41 39 38 38 37 37 37 37 37 37 37 37 37 38 37 37 38 38
36 35 37 40 42 43 43 43 44 43 44 46 46 46 49 52 53 54 55 53 53 52 52 52 52 50 48 47 46 44 43 42 41 40 39 38 38 38 38 38 38 38 39 39 39 39 39 39 39
36 37 37 40 43 44 43 42 40 40 42 43 45 46 47 49 51 53 54 53 53 53 53 53 53 52 50 49 48 46 44 43 42 41 40 39 39 39 39 39 39 39 39 39 39 39 39 39 40
37 38 38 40 44 46 46 43 41 40 41 42 45 46 47 48 49 50 52 54 54 54 53 53 53 53 51 50 49 48 46 45 44 43 42 41 40 40 40 39 39 39 39 39 39 39 39 39 40
Wind_Direction
253 251 248 246 245 244 243 242 242 240 238 237 236 237 236 236 235 235 234 232 231 231 231 230 230 231 233 234 235 237 238 237 240 246 251 257 263 270 279 289 298 304 310 315 317 319 321 321 322
252 252 249 247 246 245 244 242 241 241 239 236 236 235 234 234 234 234 233 231 230 230 230 230 231 231 233 233 234 237 236 236 240 245 247 252 260 268 277 286 294 302 309 314 317 320 321 321 323
252 251 249 248 246 245 243 240 239 239 239 237 236 235 234 234 234 233 233 231 229 229 230 230 231 231 231 232 233 234 234 236 240 241 244 250 257 266 276 284 292 300 307 313 317 320 322 322 323
252 250 249 248 247 244 242 240 238 238 238 238 236 235 234 234 234 233 232 232 229 229 230 229 229 229 229 230 231 231 234 237 238 239 244 249 254 263 272 281 289 297 304 310 315 320 321 322 323
251 250 249 249 247 243 240 239 237 237 238 238 237 236 234 234 234 233 232 231 229 229 229 228 227 227 227 228 229 231 233 235 237 239 243 247 252 258 267 276 286 296 303 309 313 319 321 322 323
251 250 250 249 246 242 238 238 237 236 236 237 237 236 235 234 234 234 232 231 230 228 228 227 225 225 226 227 228 231 232 234 237 239 242 246 249 253 260 270 282 293 300 308 313 317 319 322 323
250 250 250 249 244 239 237 236 236 236 235 236 237 236 234 234 234 234 233 232 230 228 227 225 225 225 226 226 228 231 233 234 236 239 241 244 246 249 256 267 278 289 297 304 309 314 318 321 323
250 249 248 247 244 239 236 236 235 234 234 234 235 234 233 233 233 232 232 231 230 227 226 225 225 226 226 226 228 230 232 234 235 237 238 241 244 248 255 266 275 284 292 299 304 310 315 319 322
249 247 247 245 244 239 236 235 234 233 232 232 233 233 232 232 232 231 231 230 229 227 226 226 226 226 227 228 228 230 232 234 234 235 237 239 242 247 255 263 272 281 288 294 300 307 312 316 320
248 247 246 243 241 238 235 234 233 232 231 230 231 232 232 232 232 231 231 230 229 227 226 226 226 227 228 228 229 230 231 232 232 234 235 237 240 246 253 261 270 277 283 289 296 304 310 313 317
248 247 244 241 239 237 234 232 231 230 229 228 229 230 230 230 231 231 230 229 228 227 226 226 227 227 228 228 229 230 231 231 231 231 233 236 240 245 252 260 266 272 278 285 293 301 307 310 314
248 246 243 239 237 235 234 231 230 230 228 227 227 227 228 229 230 230 229 228 227 226 225 226 226 226 227 228 229 229 230 229 230 230 233 236 240 245 252 259 263 268 275 282 291 299 304 308 311
248 245 241 238 236 234 232 231 229 229 227 226 226 226 227 228 228 228 227 226 225 224 224 225 225 225 226 227 228 229 230 230 230 231 233 237 241 247 253 257 261 267 274 281 290 296 301 306 310
247 245 241 237 235 234 233 231 229 227 227 226 225 225 226 227 227 226 226 225 224 223 223 223 224 225 226 227 227 228 229 230 231 231 234 237 242 248 251 255 260 266 274 281 288 293 298 303 307
246 244 240 236 234 233 233 231 228 227 227 227 225 225 226 226 226 225 225 224 223 223 223 223 223 225 226 226 227 228 229 229 230 232 235 238 243 248 251 255 259 266 273 280 286 291 296 301 305
245 243 240 236 234 234 234 232 227 227 227 227 225 225 226 225 225 224 224 224 222 222 222 222 222 224 225 226 226 227 228 229 230 233 236 239 244 248 252 255 259 266 272 279 285 291 295 300 303
243 242 241 237 235 234 234 232 227 228 228 227 225 225 225 224 224 224 223 223 223 222 222 222 222 224 225 225 226 227 227 229 231 234 236 240 244 249 252 256 260 266 272 278 284 290 294 299 302
243 242 240 238 236 234 234 231 228 228 228 226 225 225 225 224 223 223 223 223 223 222 222 222 222 223 225 226 226 227 228 229 232 235 238 241 245 249 253 256 261 266 272 278 284 289 293 297 300
244 241 239 238 237 235 234 232 228 228 227 225 225 224 224 223 222 222 223 223 223 223 222 222 223 224 225 226 227 228 229 230 232 235 238 241 245 250 253 257 262 267 272 278 283 287 291 295 299
242 241 239 239 237 236 235 233 228 227 227 225 225 223 223 222 222 222 222 223 223 223 224 223 224 224 225 227 228 229 229 231 233 236 240 242 246 250 253 257 262 267 272 277 281 285 289 293 297
241 240 238 239 239 238 237 234 229 227 227 225 224 224 222 222 222 221 222 222 223 223 224 225 225 225 226 228 229 230 231 233 236 239 241 243 247 251 254 258 263 267 271 276 280 283 287 292 296
242 241 240 240 240 239 238 237 228 228 227 225 224 224 224 223 222 222 223 223 224 225 224 225 225 226 227 228 230 231 233 235 236 239 241 243 246 250 254 258 263 267 271 275 279 282 287 291 294
244 241 242 241 240 239 237 239 229 228 227 226 225 225 225 225 223 224 224 225 225 226 225 225 226 227 228 229 230 232 234 235 237 239 242 244 247 250 254 259 263 266 270 274 277 281 286 289 293
244 243 242 241 241 241 238 240 233 228 228 227 227 226 226 226 225 225 225 225 226 226 226 226 226 227 229 230 232 233 235 236 238 240 242 245 247 251 255 259 262 265 269 273 276 280 284 288 292
242 242 242 243 242 242 239 241 237 229 229 229 229 227 226 226 226 225 226 226 226 227 227 227 228 228 230 231 232 234 235 237 238 240 242 245 248 251 255 258 261 264 267 272 275 279 283 287 290
239 239 239 242 244 243 240 241 237 232 230 229 229 228 227 226 226 226 226 227 227 227 228 229 229 230 231 232 233 234 236 237 238 241 243 246 248 251 255 258 260 263 267 271 275 279 282 286 289
239 239 238 240 242 243 241 240 237 234 231 229 229 228 228 227 226 226 227 228 228 227 229 230 230 230 231 232 233 234 235 237 239 241 243 246 249 252 255 258 260 263 266 270 274 278 281 285 289
241 241 239 239 242 245 243 240 237 234 232 230 228 228 228 228 228 227 227 227 228 228 229 230 231 231 231 232 233 234 235 237 239 241 243 246 249 252 255 258 260 262 265 269 273 277 281 285 288
239 239 241 242 243 245 244 238 236 235 233 231 230 229 229 229 229 228 229 229 229 229 229 230 231 231 232 233 234 234 235 237 239 242 244 247 249 252 255 258 260 262 265 269 273 277 280 284 287
242 239 239 240 241 242 242 239 236 237 236 234 231 230 230 229 229 229 230 230 230 230 229 230 231 232 232 233 235 235 236 238 240 243 245 247 250 252 255 258 260 262 265 269 273 276 279 283 287
Height
5806 5807 5809 5810 5812 5814 5817 5822 5825 5826 5827 5829 5831 5833 5836 5839 5841 5845 5846 5847 5848 5850 5852 5853 5855 5857 5858 5859 5861 5862 5863 5863 5864 5865 5865 5865 5866 5866 5867 5867 5867 5867 5867 5867 5867 5866 5866 5865 5864
5799 5801 5802 5803 5805 5808 5814 5818 5820 5821 5822 5824 5826 5829 5832 5834 5837 5839 5841 5843 5845 5847 5849 5850 5852 5854 5855 5857 5858 5859 5860 5861 5862 5863 5863 5864 5864 5865 5865 5866 5866 5866 5866 5865 5865 5864 5864 5863 5862
5792 5793 5795 5796 5798 5804 5810 5813 5814 5815 5817 5819 5822 5824 5827 5830 5832 5835 5837 5839 5841 5843 5845 5847 5849 5851 5852 5854 5855 5857 5858 5859 5860 5861 5861 5862 5862 5863 5863 5864 5864 5864 5864 5864 5863 5863 5862 5861 5860
5784 5785 5786 5789 5793 5800 5804 5806 5808 5809 5811 5814 5817 5820 5823 5826 5828 5830 5833 5835 5837 5839 5841 5843 5845 5847 5849 5851 5852 5854 5855 5856 5857 5859 5859 5860 5861 5861 5862 5862 5862 5862 5862 5862 5861 5861 5860 5859 5858
5774 5776 5778 5780 5787 5794 5797 5799 5801 5803 5806 5808 5811 5814 5818 5821 5823 5825 5828 5830 5833 5835 5837 5840 5842 5844 5846 5847 5849 5851 5852 5854 5855 5856 5857 5858 5858 5859 5859 5860 5860 5860 5860 5860 5859 5859 5858 5857 5856
5764 5766 5769 5773 5780 5786 5789 5791 5794 5797 5799 5802 5805 5809 5812 5815 5818 5820 5823 5826 5828 5831 5833 5836 5838 5840 5842 5844 5846 5848 5849 5851 5852 5853 5854 5855 5856 5857 5857 5858 5858 5858 5858 5857 5857 5857 5856 5855 5854
5754 5756 5758 5765 5771 5777 5782 5783 5786 5790 5793 5796 5798 5802 5806 5809 5812 5815 5818 5821 5824 5827 5829 5832 5834 5836 5838 5841 5843 5844 5846 5848 5849 5850 5851 5852 5853 5854 5855 5855 5856 5856 5856 5855 5855 5854 5854 5853 5852
5742 5744 5747 5754 5761 5768 5773 5775 5778 5782 5785 5788 5791 5796 5800 5803 5806 5809 5812 5816 5819 5822 5825 5827 5830 5832 5835 5837 5839 5841 5843 5844 5846 5847 5848 5850 5851 5852 5852 5853 5853 5853 5853 5853 5852 5852 5851 5851 5850
5729 5731 5735 5746 5752 5759 5762 5765 5769 5773 5777 5780 5784 5789 5793 5797 5799 5803 5807 5810 5814 5817 5820 5823 5825 5828 5831 5833 5835 5837 5839 5841 5842 5844 5845 5846 5848 5849 5850 5850 5850 5851 5851 5850 5850 5850 5849 5848 5847
5715 5718 5728 5737 5742 5746 5750 5755 5759 5763 5768 5772 5777 5781 5785 5789 5793 5797 5801 5805 5808 5812 5815 5818 5821 5823 5826 5829 5831 5833 5835 5837 5839 5840 5842 5843 5845 5846 5847 5847 5848 5848 5848 5848 5847 5847 5846 5845 5844
5703 5708 5718 5724 5728 5733 5738 5743 5747 5752 5759 5765 5769 5773 5777 5782 5786 5791 5795 5798 5802 5806 5809 5813 5816 5819 5821 5824 5827 5829 5831 5833 5835 5837 5838 5840 5841 5843 5844 5844 5845 5845 5845 5845 5844 5844 5843 5842 5841
5691 5698 5704 5710 5715 5719 5725 5731 5736 5742 5751 5756 5759 5763 5768 5774 5779 5784 5788 5792 5796 5800 5803 5807 5810 5813 5816 5819 5822 5825 5827 5829 5831 5833 5835 5836 5838 5839 5840 5841 5841 5842 5842 5841 5841 5841 5840 5839 5838
5679 5686 5691 5696 5701 5707 5712 5718 5724 5733 5741 5745 5750 5755 5760 5766 5771 5776 5781 5785 5789 5793 5797 5801 5805 5808 5811 5814 5817 5820 5822 5825 5827 5829 5831 5832 5834 5835 5836 5837 5838 5838 5838 5838 5838 5837 5836 5835 5834
5668 5672 5677 5683 5688 5694 5700 5706 5712 5724 5731 5735 5740 5746 5752 5758 5763 5768 5774 5778 5782 5787 5791 5795 5799 5802 5806 5809 5812 5815 5817 5820 5822 5824 5826 5828 5830 5831 5832 5833 5834 5834 5834 5834 5834 5833 5833 5831 5830
5656 5660 5665 5671 5677 5683 5688 5693 5704 5716 5719 5724 5731 5738 5743 5750 5755 5761 5766 5771 5776 5780 5784 5789 5793 5796 5800 5803 5806 5809 5812 5815 5817 5820 5822 5824 5826 5827 5828 5829 5830 5830 5830 5830 5830 5829 5828 5827 5826
5644 5648 5653 5662 5666 5672 5676 5683 5698 5703 5707 5714 5721 5728 5734 5741 5748 5753 5758 5764 5768 5773 5777 5782 5786 5790 5794 5797 5801 5804 5807 5810 5812 5815 5817 5819 5821 5822 5824 5825 5825 5826 5826 5826 5825 5825 5824 5823 5821
5633 5637 5643 5652 5656 5660 5664 5674 5686 5691 5696 5703 5711 5718 5725 5732 5739 5745 5750 5756 5761 5765 5770 5775 5779 5784 5788 5791 5795 5798 5801 5804 5807 5810 5812 5814 5816 5818 5819 5820 5821 5821 5821 5821 5821 5820 5819 5818 5816
5625 5629 5634 5640 5646 5649 5654 5663 5674 5679 5684 5692 5699 5707 5714 5722 5730 5737 5742 5747 5753 5758 5762 5767 5772 5777 5781 5785 5788 5792 5796 5799 5802 5804 5807 5809 5811 5812 5814 5815 5816 5816 5816 5816 5816 5815 5814 5813 5811
5615 5619 5624 5631 5635 5638 5643 5651 5660 5666 5672 5680 5688 5696 5704 5713 5721 5727 5733 5739 5744 5750 5755 5760 5765 5770 5774 5779 5783 5786 5790 5793 5796 5798 5801 5803 5805 5807 5809 5810 5811 5811 5811 5811 5811 5810 5809 5808 5806
5606 5610 5615 5621 5624 5627 5632 5639 5649 5655 5662 5670 5678 5686 5695 5703 5711 5717 5724 5730 5736 5742 5748 5753 5758 5763 5768 5772 5776 5779 5783 5786 5789 5792 5794 5797 5799 5801 5803 5804 5805 5805 5805 5805 5805 5804 5803 5802 5800
5597 5602 5607 5611 5615 5617 5622 5628 5638 5646 5652 5660 5668 5677 5685 5693 5701 5708 5715 5721 5728 5734 5740 5746 5751 5756 5760 5764 5768 5772 5776 5779 5783 5786 5788 5791 5793 5795 5796 5798 5799 5799 5799 5799 5799 5798 5797 5796 5794
5590 5595 5598 5601 5604 5608 5613 5616 5630 5636 5643 5651 5660 5668 5677 5685 5693 5699 5706 5713 5720 5726 5732 5737 5742 5747 5752 5756 5761 5765 5769 5773 5776 5779 5781 5784 5786 5788 5790 5791 5792 5793 5793 5793 5792 5791 5790 5789 5787
5583 5587 5590 5593 5595 5599 5604 5607 5619 5627 5635 5645 5653 5661 5669 5676 5683 5690 5697 5705 5711 5717 5722 5728 5733 5739 5744 5748 5753 5757 5761 5765 5768 5771 5774 5777 5779 5781 5783 5784 5785 5786 5786 5786 5785 5785 5784 5782 5781
5575 5579 5582 5584 5586 5589 5598 5599 5607 5620 5630 5638 5646 5652 5659 5666 5673 5680 5687 5694 5701 5707 5712 5718 5724 5730 5735 5740 5745 5749 5753 5757 5760 5763 5766 5769 5772 5774 5775 5777 5778 5778 5779 5779 5778 5778 5777 5775 5774
5568 5572 5574 5575 5577 5582 5590 5590 5600 5615 5622 5630 5636 5642 5649 5655 5663 5670 5677 5684 5691 5697 5703 5709 5715 5721 5727 5732 5737 5741 5745 5748 5752 5755 5758 5761 5764 5766 5768 5769 5770 5771 5771 5771 5771 5770 5769 5768 5767
5562 5565 5568 5570 5572 5576 5580 5583 5595 5605 5612 5618 5625 5631 5638 5645 5652 5659 5666 5674 5681 5687 5693 5700 5706 5712 5718 5723 5728 5733 5737 5740 5744 5747 5750 5753 5756 5758 5759 5761 5762 5763 5763 5763 5763 5763 5762 5761 5759
5555 5557 5561 5563 5565 5567 5571 5578 5587 5595 5602 5609 5615 5621 5628 5634 5642 5649 5656 5663 5670 5677 5684 5690 5696 5702 5708 5714 5719 5724 5728 5732 5736 5739 5742 5744 5747 5749 5750 5752 5753 5754 5755 5755 5755 5755 5754 5753 5751
5548 5551 5553 5555 5557 5560 5565 5571 5579 5587 5593 5599 5605 5611 5617 5624 5631 5638 5645 5652 5659 5666 5673 5680 5686 5692 5698 5704 5709 5714 5719 5723 5727 5730 5733 5736 5738 5740 5742 5743 5744 5745 5746 5746 5747 5747 5746 5745 5743
5542 5545 5546 5548 5550 5554 5557 5566 5572 5578 5584 5590 5595 5601 5607 5613 5620 5627 5634 5641 5648 5655 5661 5668 5675 5682 5688 5694 5699 5704 5709 5714 5717 5721 5724 5727 5729 5731 5733 5734 5736 5737 5737 5738 5738 5738 5737 5736 5734
5534 5537 5539 5542 5544 5546 5549 5559 5564 5570 5574 5580 5585 5591 5596 5602 5609 5616 5623 5630 5637 5644 5651 5658 5665 5671 5678 5684 5689 5694 5699 5704 5708 5712 5715 5718 5720 5722 5724 5725 5727 5728 5729 5729 5730 5729 5728 5727 5726